This demonstration page uses our WeatherBlox Daily Observations layout. Learn more.

Left ArrowRight Arrow

36.17497, -115.13722

Hourly Observations for May 26, 2017

Temp ( °F °C ) Dew Point ( °F °C ) Humidity (%) Winds ( mph kmh ) Pressure ( in mb ) Visibility ( mi km ) Precip ( " mm )
12:53 am 00:53 Clear 77 25 23 -5 13 13 SSW 14 22 29.56 1001 10 16 0.00 0.00
1:53 am 01:53 Clear 76 24.4 27 -2.8 16 16 S 12 19 29.57 1001 10 16 0.00 0.00
2:53 am 02:53 Clear 75 23.9 25 -3.9 15 15 S 10 17 29.58 1002 10 16 0.00 0.00
3:53 am 03:53 Clear 72 22.2 26 -3.3 18 18 SSE 13 20 29.58 1002 10 16 0.00 0.00
4:53 am 04:53 Clear 72 22.2 26 -3.3 18 18 S 16 26 29.60 1002 10 16 0.00 0.00
5:53 am 05:53 Sunny 71 21.7 27 -2.8 19 19 S 12 19 29.62 1003 10 16 0.00 0.00
6:53 am 06:53 Sunny 71 21.7 29 -1.7 21 21 Calm 29.65 1004 10 16 0.00 0.00
7:53 am 07:53 Sunny 74 23.3 28 -2.2 18 18 NNW 6 9 29.69 1005 10 16 0.00 0.00
8:53 am 08:53 Sunny 75 23.9 28 -2.2 18 18 VRB 3 6 29.72 1006 10 16 0.00 0.00
9:53 am 09:53 Sunny 78 25.6 27 -2.8 15 15 SSE 7 11 29.73 1007 10 16 0.00 0.00
10:53 am 10:53 Sunny 80 26.7 27 -2.8 14 14 SW 6 9 29.74 1007 10 16 0.00 0.00
11:53 am 11:53 Sunny 82 27.8 27 -2.8 13 13 undefined N/A 29.74 1007 10 16 0.00 0.00
12:53 pm 12:53 Sunny 85 29.4 25 -3.9 11 11 S 8 13 29.74 1007 10 16 0.00 0.00
1:53 pm 13:53 Sunny 87 30.6 22 -5.6 9 9 SE 12 19 29.72 1007 10 16 0.00 0.00
2:53 pm 14:53 Sunny 89 31.7 25 -3.9 10 10 SE 14 22 29.70 1006 10 16 0.00 0.00
3:53 pm 15:53 Sunny 90 32.2 22 -5.6 8 8 SSW 13 20 29.69 1005 10 16 0.00 0.00
4:53 pm 16:53 Sunny 89 31.7 26 -3.3 10 10 S 5 7 29.69 1005 10 16 0.00 0.00
5:53 pm 17:53 Sunny 89 31.7 25 -3.9 10 10 SSW 14 22 29.69 1005 10 16 0.00 0.00
6:53 pm 18:53 Sunny 88 31.1 24 -4.4 10 10 WSW 15 24 29.69 1006 10 16 0.00 0.00
7:53 pm 19:53 Clear 85 29.4 23 -5 10 10 SW 14 22 29.70 1006 10 16 0.00 0.00
8:53 pm 20:53 Clear 84 28.9 25 -3.9 11 11 SW 16 26 29.72 1007 10 16 0.00 0.00
9:53 pm 21:53 Clear 82 27.8 22 -5.6 11 11 SW 13 20 29.75 1007 10 16 0.00 0.00
10:53 pm 22:53 Clear 81 27.2 21 -6.1 11 11 SW 12 19 29.76 1008 10 16 0.00 0.00
11:53 pm 23:53 Clear 77 25 27 -2.8 16 16 W 6 9 29.78 1009 10 16 0.00 0.00

Powered by AerisWeather